Tulsa, OK

12:57 AM CST on December 15, 2017 (GMT -0600)
Tulsa International

Weather History for KTUL - August, 2013

Change the Weather History Date:

Monday, August 19, 2013

  Actual Average Record
Temperature  
Mean Temperature 76 °F 82 °F  
Max Temperature 87 °F 93 °F 108 °F (1934)
Min Temperature 65 °F 71 °F 56 °F (1932)
Cooling Degree Days 11 17  
Month to date cooling degree days 270 344  
Year to date cooling degree days 1400 1512  
Since 1 June cooling degree days 1208 1278  
Growing Degree Days 26 (Base 50)    
Moisture  
Dew Point 66 °F    
Average Humidity 71    
Maximum Humidity 93    
Minimum Humidity 48    
Precipitation  
Precipitation 0.00 in 0.09 in 3.02 in (2015)
Month to date precipitation 2.88 1.69  
Year to date precipitation 23.38 26.27  
Sea Level Pressure  
Sea Level Pressure 30.03 in    
Wind  
Wind Speed 6 mph (SSE)    
Max Wind Speed 15 mph    
Max Gust Speed 19 mph    
Visibility 10 miles    
Events      
T = Trace of Precipitation, MM = Missing Value Source: NWS Daily Summary

Daily Weather History Graph

Daily Weather History Graph

Search for Another Location

Airport or City:

Trip Planner

Search our weather history database for the weather conditions in past years. The results will help you decide how hot, cold, wet, or windy it might be!

Date:

Astronomy

Aug. 19, 2013 Rise Set
Actual Time 6:45 AM CDT 8:08 PM CDT
Civil Twilight 6:18 AM CDT 8:35 PM CDT
Nautical Twilight 5:45 AM CDT 9:07 PM CDT
Astronomical Twilight 5:11 AM CDT 9:41 PM CDT
Moon 7:00 PM CDT (8/19) 5:06 AM CDT (8/19)
Length of Visible Light 14h 17m
Length of Day
13h 23m
Waxing Gibbous, 97% of the Moon is Illuminated
Aug 19
Waxing Gibbous
Aug 20
Full
Aug 28
Last Quarter
Sep 5
New
Sep 12
First Quarter

Hourly Weather History & Observations

Time (CDT) Temp. Heat Index Dew Point Humidity Pressure Visibility Wind Dir Wind Speed Gust Speed Precip Events Conditions
12:53 AM 69.1 °F - 66.0 °F 90% 30.06 in 10.0 mi Calm Calm - N/A   Clear
1:53 AM 69.1 °F - 66.0 °F 90% 30.06 in 9.0 mi Calm Calm - N/A   Clear
2:53 AM 68.0 °F - 64.9 °F 90% 30.05 in 9.0 mi Calm Calm - N/A   Clear
3:53 AM 66.0 °F - 64.0 °F 93% 30.04 in 10.0 mi ESE 3.5 mph - N/A   Clear
4:53 AM 66.0 °F - 64.0 °F 93% 30.03 in 9.0 mi Calm Calm - N/A   Clear
5:53 AM 66.9 °F - 64.9 °F 93% 30.04 in 7.0 mi SE 3.5 mph - N/A   Clear
6:53 AM 66.9 °F - 64.9 °F 93% 30.05 in 7.0 mi ESE 4.6 mph - N/A   Partly Cloudy
7:53 AM 70.0 °F - 66.0 °F 87% 30.06 in 9.0 mi South 6.9 mph - N/A   Mostly Cloudy
8:53 AM 73.0 °F - 66.9 °F 81% 30.08 in 10.0 mi SSE 6.9 mph - N/A   Mostly Cloudy
9:53 AM 77.0 °F - 66.9 °F 71% 30.09 in 10.0 mi South 10.4 mph - N/A   Mostly Cloudy
10:53 AM 80.1 °F 82.3 °F 66.9 °F 64% 30.08 in 10.0 mi South 12.7 mph - N/A   Scattered Clouds
11:53 AM 82.9 °F 85.8 °F 68.0 °F 60% 30.07 in 10.0 mi South 12.7 mph - N/A   Scattered Clouds
12:53 PM 84.0 °F 86.5 °F 66.9 °F 56% 30.06 in 10.0 mi SSE 8.1 mph - N/A   Mostly Cloudy
1:53 PM 86.0 °F 88.8 °F 66.9 °F 53% 30.04 in 10.0 mi SE 10.4 mph 16.1 mph N/A   Mostly Cloudy
2:53 PM 86.0 °F 88.2 °F 66.0 °F 51% 30.03 in 10.0 mi South 5.8 mph - N/A   Scattered Clouds
3:53 PM 87.1 °F 89.2 °F 66.0 °F 49% 30.01 in 10.0 mi SSE 6.9 mph - N/A   Mostly Cloudy
4:53 PM 86.0 °F 88.2 °F 66.0 °F 51% 30.00 in 10.0 mi South 9.2 mph - N/A   Mostly Cloudy
5:53 PM 86.0 °F 87.3 °F 64.0 °F 48% 29.98 in 10.0 mi SSE 8.1 mph - N/A   Scattered Clouds
6:53 PM 84.0 °F 85.4 °F 64.0 °F 51% 29.96 in 10.0 mi ESE 8.1 mph - N/A   Partly Cloudy
7:53 PM 80.1 °F 82.1 °F 66.0 °F 62% 29.97 in 10.0 mi ESE 5.8 mph - N/A   Partly Cloudy
8:53 PM 75.9 °F - 66.0 °F 71% 29.97 in 10.0 mi SE 6.9 mph - N/A   Clear
9:53 PM 75.9 °F - 66.0 °F 71% 29.99 in 10.0 mi SE 4.6 mph - N/A   Clear
10:53 PM 73.9 °F - 66.0 °F 76% 30.00 in 10.0 mi SE 5.8 mph - N/A   Clear
11:53 PM 73.0 °F - 66.0 °F 79% 30.00 in 10.0 mi SE 5.8 mph - N/A   Clear